Station Historical Data
Daily Summary for April 25, 2017 Units:  English    Metric   Both
« Previous Day
Next Day »
Daily Weekly Monthly Yearly Custom
  High: Low: Average:
Temperature: 65.3 °F 45.9 °F 55.3 °F
Dew Point: 55.8 °F 37.6 °F 48.3 °F
Humidity: 90% 64% 78%
Wind Speed: 10.0mph 0.0mph 3.2mph
Wind Gust: 15.0mph - -
Wind- - ENE
Pressure: 30.03 in 29.83 in -
Precipitation: 0.36 in    
Historical Graphs
 
 
Tabular Data for April 25, 2017
Time Temperature Dew Point Pressure Wind Wind Speed Wind Gust Humidity Rainfall Rate (Hourly)
00:00 49.6 °F 37.9 °F 30.03 in ENE 1.0 mph 7.0 mph 64% 0.00 in
00:05 49.5 °F 37.8 °F 30.03 in NE 5.0 mph 6.0 mph 64% 0.00 in
00:10 49.4 °F 37.7 °F 30.03 in ENE 3.0 mph 8.0 mph 64% 0.00 in
00:15 49.3 °F 38.0 °F 30.03 in Calm   6.0 mph 65% 0.00 in
00:20 49.3 °F 38.0 °F 30.03 in NNE 1.0 mph 5.0 mph 65% 0.00 in
00:25 49.3 °F 38.0 °F 30.03 in East 2.0 mph 6.0 mph 65% 0.00 in
00:30 48.8 °F 37.9 °F 30.03 in ENE 2.0 mph 6.0 mph 66% 0.00 in
00:35 48.3 °F 37.8 °F 30.03 in ENE 1.0 mph 4.0 mph 67% 0.00 in
00:40 48.0 °F 37.6 °F 30.03 in ENE 1.0 mph 4.0 mph 67% 0.00 in
00:45 47.8 °F 37.7 °F 30.03 in ENE 1.0 mph 3.0 mph 68% 0.00 in
00:50 47.8 °F 37.7 °F 30.03 in ENE 2.0 mph 6.0 mph 68% 0.00 in
00:55 48.0 °F 37.9 °F 30.03 in NE 1.0 mph 7.0 mph 68% 0.00 in
01:00 48.0 °F 37.9 °F 30.03 in Calm   3.0 mph 68% 0.00 in
01:05 48.0 °F 37.9 °F 30.03 in NE 2.0 mph 6.0 mph 68% 0.00 in
01:10 47.9 °F 38.2 °F 30.03 in ENE 2.0 mph 6.0 mph 69% 0.00 in
01:15 47.6 °F 37.9 °F 30.03 in ENE 2.0 mph 5.0 mph 69% 0.00 in
01:20 47.6 °F 37.9 °F 30.03 in ENE 2.0 mph 6.0 mph 69% 0.00 in
01:25 47.6 °F 38.3 °F 30.03 in East 5.0 mph 7.0 mph 70% 0.00 in
01:30 47.6 °F 38.3 °F 30.03 in ENE 1.0 mph 7.0 mph 70% 0.00 in
01:35 47.4 °F 38.1 °F 30.03 in ENE 3.0 mph 7.0 mph 70% 0.00 in
01:40 47.1 °F 37.8 °F 30.02 in NE 1.0 mph 4.0 mph 70% 0.00 in
01:45 46.9 °F 38.0 °F 30.02 in NE 2.0 mph 5.0 mph 71% 0.00 in
01:50 46.8 °F 37.9 °F 30.02 in ENE 2.0 mph 4.0 mph 71% 0.00 in
01:55 46.6 °F 38.1 °F 30.02 in NE 3.0 mph 5.0 mph 72% 0.00 in
02:00 46.7 °F 38.1 °F 30.02 in NE 1.0 mph 6.0 mph 72% 0.00 in
02:05 46.6 °F 38.1 °F 30.01 in NE 2.0 mph 6.0 mph 72% 0.00 in
02:10 46.5 °F 38.0 °F 30.01 in NE 2.0 mph 4.0 mph 72% 0.00 in
02:15 46.4 °F 37.9 °F 30.01 in ENE 1.0 mph 3.0 mph 72% 0.00 in
02:20 46.4 °F 37.9 °F 30.01 in ENE 2.0 mph 4.0 mph 72% 0.00 in
02:25 46.5 °F 38.0 °F 30.01 in East 2.0 mph 5.0 mph 72% 0.00 in
02:35 46.3 °F 38.1 °F 30.00 in East 2.0 mph 5.0 mph 73% 0.00 in
02:40 46.2 °F 38.0 °F 30.00 in ENE 1.0 mph 5.0 mph 73% 0.00 in
02:45 46.1 °F 37.9 °F 30.00 in East 2.0 mph 5.0 mph 73% 0.00 in
02:50 46.0 °F 38.2 °F 30.00 in ENE 3.0 mph 3.0 mph 74% 0.00 in
02:55 45.9 °F 38.1 °F 30.00 in East 2.0 mph 4.0 mph 74% 0.00 in
03:00 46.0 °F 38.2 °F 29.99 in ENE 2.0 mph 5.0 mph 74% 0.00 in
03:05 46.1 °F 38.3 °F 29.99 in ENE 2.0 mph 5.0 mph 74% 0.00 in
03:10 46.3 °F 38.5 °F 29.99 in ENE 2.0 mph 5.0 mph 74% 0.00 in
03:15 46.5 °F 38.7 °F 29.99 in East 2.0 mph 3.0 mph 74% 0.00 in
03:20 46.7 °F 38.9 °F 29.99 in East 1.0 mph 3.0 mph 74% 0.00 in
03:25 46.9 °F 39.0 °F 29.99 in East 1.0 mph 2.0 mph 74% 0.00 in
03:35 47.2 °F 39.3 °F 29.98 in East 1.0 mph 3.0 mph 74% 0.00 in
03:40 47.3 °F 39.1 °F 29.98 in East 1.0 mph 3.0 mph 73% 0.00 in
03:45 47.4 °F 39.5 °F 29.98 in Calm   2.0 mph 74% 0.00 in
03:55 47.6 °F 39.4 °F 29.98 in Calm   3.0 mph 73% 0.00 in
04:00 47.7 °F 39.5 °F 29.98 in East 1.0 mph 5.0 mph 73% 0.00 in
04:05 47.8 °F 39.6 °F 29.98 in East 1.0 mph 5.0 mph 73% 0.00 in
04:10 47.9 °F 39.7 °F 29.97 in ENE 2.0 mph 5.0 mph 73% 0.00 in
04:15 48.1 °F 39.9 °F 29.97 in East 2.0 mph 5.0 mph 73% 0.00 in
04:20 48.3 °F 40.0 °F 29.97 in East 2.0 mph 5.0 mph 73% 0.00 in
04:25 48.6 °F 40.0 °F 29.97 in East 3.0 mph 3.0 mph 72% 0.00 in
04:30 48.8 °F 40.5 °F 29.97 in Calm   3.0 mph 73% 0.00 in
04:35 49.0 °F 40.4 °F 29.97 in ENE 2.0 mph 6.0 mph 72% 0.00 in
04:40 49.1 °F 40.5 °F 29.97 in NE 3.0 mph 7.0 mph 72% 0.00 in
04:45 49.3 °F 40.7 °F 29.97 in ENE 3.0 mph 7.0 mph 72% 0.00 in
04:50 49.4 °F 40.7 °F 29.97 in NE 3.0 mph 5.0 mph 72% 0.00 in
04:55 49.6 °F 40.9 °F 29.97 in NE 3.0 mph 6.0 mph 72% 0.00 in
05:05 50.0 °F 41.3 °F 29.97 in NE 3.0 mph 5.0 mph 72% 0.00 in
05:10 50.2 °F 41.2 °F 29.97 in NE 2.0 mph 8.0 mph 71% 0.00 in
05:15 50.5 °F 41.4 °F 29.97 in ENE 2.0 mph 7.0 mph 71% 0.00 in
05:20 50.6 °F 41.5 °F 29.97 in ENE 3.0 mph 6.0 mph 71% 0.00 in
05:25 50.7 °F 41.6 °F 29.97 in NE 3.0 mph 7.0 mph 71% 0.00 in
05:30 50.9 °F 41.5 °F 29.97 in NE 3.0 mph 7.0 mph 70% 0.00 in
05:40 51.1 °F 41.7 °F 29.97 in NE 3.0 mph 6.0 mph 70% 0.00 in
05:45 51.2 °F 41.7 °F 29.97 in NE 3.0 mph 8.0 mph 70% 0.00 in
05:50 51.3 °F 42.6 °F 29.97 in NE 3.0 mph 8.0 mph 72% 0.00 in
05:55 51.1 °F 42.7 °F 29.97 in NE 1.0 mph 5.0 mph 73% 0.00 in
06:00 50.6 °F 43.0 °F 29.97 in NE 4.0 mph 4.0 mph 75% 0.01 in
06:05 50.3 °F 43.4 °F 29.97 in NE 2.0 mph 5.0 mph 77% 0.01 in
06:10 50.1 °F 43.5 °F 29.98 in NE 2.0 mph 5.0 mph 78% 0.02 in
06:15 49.8 °F 43.9 °F 29.98 in NE 1.0 mph 3.0 mph 80% 0.02 in
06:20 49.6 °F 43.4 °F 29.98 in Calm   3.0 mph 79% 0.02 in
06:25 49.6 °F 43.7 °F 29.98 in ESE 2.0 mph 5.0 mph 80% 0.03 in
06:30 49.5 °F 43.6 °F 29.98 in ENE 2.0 mph 5.0 mph 80% 0.03 in
06:35 49.4 °F 43.5 °F 29.99 in ENE 1.0 mph 5.0 mph 80% 0.05 in
06:40 49.2 °F 43.6 °F 29.99 in ENE 2.0 mph 5.0 mph 81% 0.06 in
06:45 48.9 °F 44.0 °F 29.99 in East 2.0 mph 5.0 mph 83% 0.07 in
06:50 48.9 °F 44.0 °F 29.99 in East 2.0 mph 5.0 mph 83% 0.07 in
06:55 48.9 °F 44.3 °F 29.99 in NE 1.0 mph 4.0 mph 84% 0.08 in
07:00 49.0 °F 44.4 °F 29.99 in NE 1.0 mph 5.0 mph 84% 0.07 in
07:05 49.1 °F 44.5 °F 29.99 in NE 2.0 mph 5.0 mph 84% 0.08 in
07:10 49.1 °F 44.8 °F 29.99 in NE 2.0 mph 5.0 mph 85% 0.08 in
07:15 48.9 °F 44.6 °F 29.99 in NE 3.0 mph 7.0 mph 85% 0.08 in
07:20 48.7 °F 44.4 °F 29.99 in NE 4.0 mph 8.0 mph 85% 0.09 in
07:25 48.6 °F 44.6 °F 29.99 in NE 4.0 mph 8.0 mph 86% 0.09 in
07:30 48.5 °F 44.5 °F 29.99 in NE 4.0 mph 9.0 mph 86% 0.10 in
07:35 48.3 °F 44.3 °F 29.99 in NE 4.0 mph 10.0 mph 86% 0.09 in
07:40 48.3 °F 44.6 °F 29.99 in ENE 3.0 mph 8.0 mph 87% 0.09 in
07:45 48.3 °F 44.6 °F 29.99 in ENE 3.0 mph 7.0 mph 87% 0.09 in
07:50 48.3 °F 44.9 °F 29.99 in NE 3.0 mph 7.0 mph 88% 0.11 in
07:55 48.3 °F 44.9 °F 30.00 in NE 4.0 mph 8.0 mph 88% 0.10 in
08:00 48.3 °F 44.9 °F 29.99 in NE 4.0 mph 7.0 mph 88% 0.13 in
08:05 48.3 °F 44.9 °F 30.00 in NE 4.0 mph 8.0 mph 88% 0.16 in
08:10 48.1 °F 45.0 °F 30.00 in NE 4.0 mph 8.0 mph 89% 0.17 in
08:15 48.3 °F 45.2 °F 30.00 in NE 4.0 mph 9.0 mph 89% 0.17 in
08:20 48.3 °F 45.2 °F 30.00 in NE 4.0 mph 9.0 mph 89% 0.17 in
08:25 48.3 °F 45.2 °F 30.00 in NE 4.0 mph 8.0 mph 89% 0.17 in
08:30 48.3 °F 45.2 °F 30.00 in NE 5.0 mph 9.0 mph 89% 0.17 in
08:35 48.3 °F 45.2 °F 30.00 in NE 4.0 mph 8.0 mph 89% 0.17 in
08:40 48.3 °F 45.2 °F 30.00 in NE 6.0 mph 9.0 mph 89% 0.16 in
08:45 48.4 °F 45.6 °F 30.00 in NE 2.0 mph 7.0 mph 90% 0.15 in
08:50 48.6 °F 45.8 °F 30.00 in NE 2.0 mph 9.0 mph 90% 0.14 in
08:55 48.6 °F 45.8 °F 30.00 in NE 5.0 mph 7.0 mph 90% 0.14 in
09:00 48.6 °F 45.8 °F 30.00 in NE 3.0 mph 5.0 mph 90% 0.11 in
09:05 48.6 °F 45.8 °F 30.00 in NE 3.0 mph 8.0 mph 90% 0.08 in
09:10 48.8 °F 46.0 °F 30.00 in NE 3.0 mph 8.0 mph 90% 0.06 in
09:15 48.9 °F 46.1 °F 30.00 in NE 3.0 mph 8.0 mph 90% 0.05 in
09:20 49.1 °F 46.3 °F 30.00 in NE 4.0 mph 8.0 mph 90% 0.04 in
09:25 49.2 °F 46.4 °F 30.00 in NE 2.0 mph 7.0 mph 90% 0.04 in
09:30 49.4 °F 46.6 °F 30.00 in NE 5.0 mph 7.0 mph 90% 0.03 in
09:35 49.5 °F 46.7 °F 30.00 in NE 4.0 mph 8.0 mph 90% 0.02 in
09:40 49.6 °F 46.8 °F 30.00 in NE 4.0 mph 8.0 mph 90% 0.02 in
09:45 49.9 °F 47.1 °F 30.00 in NE 4.0 mph 9.0 mph 90% 0.01 in
09:50 50.0 °F 47.2 °F 30.00 in NE 4.0 mph 9.0 mph 90% 0.01 in
09:55 50.2 °F 47.1 °F 30.00 in NE 4.0 mph 9.0 mph 89% 0.01 in
10:00 50.4 °F 47.3 °F 30.00 in NE 5.0 mph 7.0 mph 89% 0.01 in
10:05 50.5 °F 47.4 °F 29.99 in NE 4.0 mph 7.0 mph 89% 0.00 in
10:10 50.7 °F 47.6 °F 29.99 in NE 7.0 mph 7.0 mph 89% 0.00 in
10:15 50.8 °F 47.7 °F 29.99 in NE 6.0 mph 8.0 mph 89% 0.00 in
10:20 51.0 °F 47.9 °F 29.99 in ENE 7.0 mph 7.0 mph 89% 0.00 in
10:25 51.3 °F 48.2 °F 29.99 in North 6.0 mph 9.0 mph 89% 0.00 in
10:30 51.4 °F 48.0 °F 29.99 in ENE 5.0 mph 8.0 mph 88% 0.01 in
10:35 51.6 °F 48.2 °F 29.99 in NE 4.0 mph 8.0 mph 88% 0.01 in
10:40 51.8 °F 48.4 °F 29.99 in ENE 4.0 mph 8.0 mph 88% 0.01 in
10:45 52.1 °F 48.7 °F 29.99 in NE 3.0 mph 7.0 mph 88% 0.01 in
10:50 52.1 °F 48.7 °F 29.99 in NE 3.0 mph 7.0 mph 88% 0.01 in
10:55 52.3 °F 49.2 °F 29.99 in ENE 3.0 mph 7.0 mph 89% 0.01 in
11:00 52.3 °F 48.9 °F 29.99 in ENE 3.0 mph 7.0 mph 88% 0.01 in
11:10 52.7 °F 49.5 °F 29.99 in NE 3.0 mph 7.0 mph 89% 0.01 in
11:15 52.9 °F 49.4 °F 29.99 in ENE 2.0 mph 6.0 mph 88% 0.01 in
11:20 53.1 °F 49.6 °F 29.99 in NE 3.0 mph 7.0 mph 88% 0.01 in
11:25 53.2 °F 49.7 °F 29.99 in NE 4.0 mph 7.0 mph 88% 0.01 in
11:30 53.3 °F 49.8 °F 29.98 in NE 4.0 mph 7.0 mph 88% 0.00 in
11:35 53.4 °F 49.9 °F 29.98 in NE 4.0 mph 7.0 mph 88% 0.00 in
11:40 53.8 °F 50.3 °F 29.98 in NE 4.0 mph 7.0 mph 88% 0.00 in
11:45 54.0 °F 50.5 °F 29.98 in NE 3.0 mph 5.0 mph 88% 0.01 in
11:50 54.4 °F 51.2 °F 29.98 in ENE 3.0 mph 7.0 mph 89% 0.01 in
11:55 54.4 °F 50.9 °F 29.98 in ENE 3.0 mph 7.0 mph 88% 0.01 in
12:00 54.7 °F 51.2 °F 29.98 in NE 3.0 mph 7.0 mph 88% 0.01 in
12:05 55.2 °F 52.0 °F 29.97 in NE 3.0 mph 7.0 mph 89% 0.01 in
12:10 55.2 °F 51.7 °F 29.97 in NE 3.0 mph 5.0 mph 88% 0.01 in
12:15 55.4 °F 51.9 °F 29.97 in ENE 8.0 mph 8.0 mph 88% 0.01 in
12:20 55.5 °F 52.0 °F 29.97 in NE 4.0 mph 8.0 mph 88% 0.01 in
12:25 55.5 °F 52.0 °F 29.97 in NE 6.0 mph 7.0 mph 88% 0.01 in
12:30 55.9 °F 52.4 °F 29.96 in ENE 5.0 mph 6.0 mph 88% 0.01 in
12:35 55.8 °F 52.0 °F 29.96 in ENE 4.0 mph 6.0 mph 87% 0.01 in
12:40 56.2 °F 52.7 °F 29.96 in East 3.0 mph 6.0 mph 88% 0.01 in
12:45 56.5 °F 53.0 °F 29.96 in East 2.0 mph 6.0 mph 88% 0.00 in
12:50 56.5 °F 52.4 °F 29.95 in East 3.0 mph 8.0 mph 86% 0.00 in
12:55 56.6 °F 52.5 °F 29.95 in ESE 2.0 mph 7.0 mph 86% 0.00 in
13:05 56.6 °F 52.1 °F 29.95 in East 2.0 mph 8.0 mph 85% 0.01 in
13:10 56.6 °F 52.1 °F 29.95 in East 3.0 mph 8.0 mph 85% 0.01 in
13:15 56.9 °F 52.8 °F 29.94 in East 3.0 mph 8.0 mph 86% 0.01 in
13:20 56.9 °F 52.1 °F 29.94 in East 3.0 mph 8.0 mph 84% 0.01 in
13:25 57.1 °F 52.6 °F 29.93 in East 3.0 mph 8.0 mph 85% 0.01 in
13:30 57.5 °F 52.7 °F 29.93 in ESE 2.0 mph 8.0 mph 84% 0.01 in
13:35 57.9 °F 53.1 °F 29.93 in East 2.0 mph 7.0 mph 84% 0.01 in
13:40 58.1 °F 53.3 °F 29.93 in NE 2.0 mph 5.0 mph 84% 0.01 in
13:45 58.5 °F 53.4 °F 29.93 in ENE 3.0 mph 8.0 mph 83% 0.01 in
13:50 58.9 °F 53.7 °F 29.92 in ENE 1.0 mph 7.0 mph 83% 0.01 in
13:55 59.2 °F 53.7 °F 29.93 in ESE 5.0 mph 10.0 mph 82% 0.01 in
14:00 59.5 °F 54.0 °F 29.92 in East 7.0 mph 9.0 mph 82% 0.01 in
14:05 59.8 °F 54.0 °F 29.92 in ENE 4.0 mph 8.0 mph 81% 0.00 in
14:10 60.0 °F 53.8 °F 29.92 in NE 4.0 mph 9.0 mph 80% 0.00 in
14:15 60.3 °F 54.4 °F 29.92 in ENE 4.0 mph 9.0 mph 81% 0.00 in
14:20 60.4 °F 54.5 °F 29.92 in ENE 3.0 mph 8.0 mph 81% 0.00 in
14:25 60.7 °F 54.5 °F 29.91 in ENE 3.0 mph 9.0 mph 80% 0.00 in
14:30 60.7 °F 54.5 °F 29.91 in ENE 4.0 mph 9.0 mph 80% 0.00 in
14:40 60.9 °F 54.3 °F 29.91 in ENE 5.0 mph 9.0 mph 79% 0.00 in
14:45 61.0 °F 54.4 °F 29.91 in NNE 5.0 mph 7.0 mph 79% 0.00 in
14:50 61.1 °F 54.5 °F 29.91 in NE 3.0 mph 10.0 mph 79% 0.00 in
14:55 61.5 °F 54.9 °F 29.91 in East 2.0 mph 8.0 mph 79% 0.00 in
15:00 61.6 °F 55.0 °F 29.90 in NE 6.0 mph 6.0 mph 79% 0.00 in
15:05 61.6 °F 54.7 °F 29.90 in ENE 5.0 mph 10.0 mph 78% 0.00 in
15:10 62.2 °F 55.3 °F 29.90 in NE 3.0 mph 8.0 mph 78% 0.00 in
15:15 62.7 °F 55.4 °F 29.90 in ENE 4.0 mph 8.0 mph 77% 0.00 in
15:20 62.4 °F 54.7 °F 29.89 in ENE 4.0 mph 8.0 mph 76% 0.00 in
15:25 62.3 °F 54.6 °F 29.89 in ENE 4.0 mph 9.0 mph 76% 0.00 in
15:30 62.4 °F 54.7 °F 29.89 in ENE 4.0 mph 9.0 mph 76% 0.00 in
15:35 62.5 °F 55.2 °F 29.89 in ENE 4.0 mph 8.0 mph 77% 0.00 in
15:40 62.8 °F 55.1 °F 29.89 in Calm   9.0 mph 76% 0.00 in
15:45 62.9 °F 55.2 °F 29.89 in ENE 3.0 mph 9.0 mph 76% 0.00 in
15:50 62.7 °F 55.0 °F 29.89 in NE 4.0 mph 8.0 mph 76% 0.00 in
15:55 62.7 °F 54.7 °F 29.89 in NE 4.0 mph 9.0 mph 75% 0.00 in
16:00 62.7 °F 54.7 °F 29.89 in East 5.0 mph 8.0 mph 75% 0.00 in
16:05 62.7 °F 54.7 °F 29.89 in ENE 4.0 mph 7.0 mph 75% 0.00 in
16:10 62.7 °F 54.7 °F 29.89 in ENE 4.0 mph 8.0 mph 75% 0.00 in
16:15 62.6 °F 54.6 °F 29.88 in NE 4.0 mph 9.0 mph 75% 0.00 in
16:20 62.6 °F 54.9 °F 29.88 in NE 5.0 mph 9.0 mph 76% 0.00 in
16:25 62.5 °F 54.5 °F 29.88 in NE 5.0 mph 10.0 mph 75% 0.00 in
16:30 62.5 °F 54.8 °F 29.88 in NNE 6.0 mph 7.0 mph 76% 0.00 in
16:35 62.6 °F 54.9 °F 29.88 in ENE 4.0 mph 9.0 mph 76% 0.00 in
16:40 62.5 °F 54.8 °F 29.88 in NE 4.0 mph 8.0 mph 76% 0.00 in
16:45 62.5 °F 54.8 °F 29.88 in NE 4.0 mph 8.0 mph 76% 0.00 in
16:50 62.7 °F 55.0 °F 29.88 in NE 5.0 mph 10.0 mph 76% 0.00 in
16:55 62.6 °F 54.6 °F 29.88 in NE 5.0 mph 10.0 mph 75% 0.00 in
17:00 62.7 °F 54.7 °F 29.88 in NE 6.0 mph 11.0 mph 75% 0.00 in
17:05 62.9 °F 54.5 °F 29.88 in NE 2.0 mph 11.0 mph 74% 0.00 in
17:10 63.1 °F 54.7 °F 29.88 in NE 2.0 mph 10.0 mph 74% 0.00 in
17:15 63.3 °F 54.9 °F 29.88 in NE 5.0 mph 10.0 mph 74% 0.00 in
17:20 63.2 °F 54.4 °F 29.88 in NE 5.0 mph 11.0 mph 73% 0.00 in
17:25 63.1 °F 54.7 °F 29.88 in NE 7.0 mph 10.0 mph 74% 0.00 in
17:30 63.1 °F 54.7 °F 29.88 in NE 4.0 mph 10.0 mph 74% 0.00 in
17:35 63.2 °F 54.4 °F 29.87 in NE 3.0 mph 9.0 mph 73% 0.00 in
17:40 63.5 °F 54.7 °F 29.87 in NE 4.0 mph 10.0 mph 73% 0.00 in
17:45 63.6 °F 54.8 °F 29.87 in NE 6.0 mph 13.0 mph 73% 0.00 in
17:50 63.6 °F 54.8 °F 29.87 in ENE 6.0 mph 13.0 mph 73% 0.00 in
17:55 63.7 °F 54.9 °F 29.86 in ENE 6.0 mph 12.0 mph 73% 0.00 in
18:00 64.1 °F 54.9 °F 29.86 in ENE 6.0 mph 12.0 mph 72% 0.00 in
18:05 64.6 °F 55.4 °F 29.86 in ENE 6.0 mph 12.0 mph 72% 0.00 in
18:10 65.1 °F 55.8 °F 29.86 in ENE 7.0 mph 13.0 mph 72% 0.00 in
18:15 65.3 °F 55.3 °F 29.85 in ENE 10.0 mph 10.0 mph 70% 0.00 in
18:20 65.2 °F 55.2 °F 29.85 in NE 6.0 mph 13.0 mph 70% 0.00 in
18:25 65.3 °F 55.3 °F 29.85 in ENE 3.0 mph 15.0 mph 70% 0.00 in
18:30 65.1 °F 55.1 °F 29.85 in NE 5.0 mph 13.0 mph 70% 0.00 in
18:35 64.7 °F 55.1 °F 29.84 in ESE 5.0 mph 14.0 mph 71% 0.00 in
18:40 64.4 °F 54.8 °F 29.85 in NE 6.0 mph 12.0 mph 71% 0.00 in
18:45 64.2 °F 54.6 °F 29.85 in NE 5.0 mph 12.0 mph 71% 0.00 in
18:50 64.3 °F 54.7 °F 29.84 in NE 6.0 mph 12.0 mph 71% 0.00 in
18:55 64.2 °F 54.6 °F 29.84 in NE 6.0 mph 12.0 mph 71% 0.00 in
19:00 64.2 °F 55.0 °F 29.84 in ENE 5.0 mph 10.0 mph 72% 0.00 in
19:05 64.2 °F 54.6 °F 29.84 in ENE 5.0 mph 9.0 mph 71% 0.00 in
19:10 64.1 °F 54.5 °F 29.84 in ENE 5.0 mph 9.0 mph 71% 0.00 in
19:15 63.9 °F 54.3 °F 29.84 in ENE 5.0 mph 10.0 mph 71% 0.00 in
19:20 63.8 °F 54.2 °F 29.84 in ENE 5.0 mph 10.0 mph 71% 0.00 in
19:25 63.6 °F 54.0 °F 29.84 in ENE 4.0 mph 8.0 mph 71% 0.00 in
19:30 63.5 °F 53.9 °F 29.84 in East 2.0 mph 8.0 mph 71% 0.00 in
19:35 63.4 °F 54.2 °F 29.84 in East 5.0 mph 9.0 mph 72% 0.00 in
19:40 63.2 °F 54.0 °F 29.84 in ENE 3.0 mph 7.0 mph 72% 0.00 in
19:45 63.1 °F 53.9 °F 29.84 in ENE 3.0 mph 8.0 mph 72% 0.00 in
19:50 63.2 °F 54.0 °F 29.84 in ENE 3.0 mph 8.0 mph 72% 0.00 in
19:55 63.2 °F 53.6 °F 29.84 in East 3.0 mph 5.0 mph 71% 0.00 in
20:00 63.1 °F 53.5 °F 29.83 in East 3.0 mph 6.0 mph 71% 0.00 in
20:05 62.9 °F 53.7 °F 29.83 in ESE 1.0 mph 5.0 mph 72% 0.00 in
20:10 62.9 °F 53.7 °F 29.83 in East 1.0 mph 6.0 mph 72% 0.00 in
20:15 63.1 °F 53.2 °F 29.83 in SSE 5.0 mph 11.0 mph 70% 0.00 in
20:20 63.3 °F 53.0 °F 29.83 in ESE 4.0 mph 11.0 mph 69% 0.00 in
20:25 63.2 °F 52.9 °F 29.83 in SE 4.0 mph 8.0 mph 69% 0.00 in
20:30 63.1 °F 52.8 °F 29.84 in ESE 2.0 mph 8.0 mph 69% 0.00 in
20:35 63.1 °F 52.8 °F 29.84 in ESE 2.0 mph 6.0 mph 69% 0.00 in
20:40 63.0 °F 52.7 °F 29.84 in ESE 2.0 mph 8.0 mph 69% 0.00 in
20:45 62.9 °F 52.6 °F 29.84 in East 5.0 mph 13.0 mph 69% 0.00 in
20:50 62.9 °F 52.2 °F 29.84 in ESE 5.0 mph 13.0 mph 68% 0.00 in
20:55 62.9 °F 52.2 °F 29.83 in ESE 5.0 mph 9.0 mph 68% 0.00 in
21:00 62.8 °F 52.1 °F 29.84 in SE 6.0 mph 12.0 mph 68% 0.00 in
21:05 62.8 °F 52.1 °F 29.84 in East 6.0 mph 11.0 mph 68% 0.00 in
21:10 62.7 °F 52.0 °F 29.84 in SSE 2.0 mph 11.0 mph 68% 0.00 in
21:15 62.6 °F 51.9 °F 29.85 in SSE 5.0 mph 8.0 mph 68% 0.00 in
21:20 62.6 °F 51.9 °F 29.85 in SE 4.0 mph 9.0 mph 68% 0.00 in
21:25 62.5 °F 52.2 °F 29.85 in SE 4.0 mph 13.0 mph 69% 0.00 in
21:30 62.4 °F 52.1 °F 29.85 in SSE 4.0 mph 13.0 mph 69% 0.00 in
21:35 62.3 °F 52.0 °F 29.85 in SSE 5.0 mph 12.0 mph 69% 0.00 in
21:40 62.2 °F 52.3 °F 29.85 in SSE 6.0 mph 10.0 mph 70% 0.00 in
21:45 62.1 °F 52.2 °F 29.85 in SSE 1.0 mph 8.0 mph 70% 0.00 in
21:50 61.8 °F 52.3 °F 29.85 in SSE 7.0 mph 11.0 mph 71% 0.00 in
21:55 61.7 °F 52.2 °F 29.85 in SE 3.0 mph 10.0 mph 71% 0.00 in
22:00 61.4 °F 52.3 °F 29.85 in South 6.0 mph 6.0 mph 72% 0.00 in
22:05 61.2 °F 52.5 °F 29.85 in SSE 4.0 mph 8.0 mph 73% 0.00 in
22:10 60.8 °F 52.8 °F 29.85 in SE 2.0 mph 7.0 mph 75% 0.00 in
22:15 60.5 °F 52.9 °F 29.85 in SSE 1.0 mph 7.0 mph 76% 0.00 in
22:20 60.3 °F 52.7 °F 29.85 in SSE 2.0 mph 4.0 mph 76% 0.00 in
22:25 60.2 °F 53.0 °F 29.85 in SE 2.0 mph 6.0 mph 77% 0.00 in
22:30 60.0 °F 52.8 °F 29.85 in SE 2.0 mph 6.0 mph 77% 0.00 in
22:35 59.8 °F 52.9 °F 29.84 in SE 3.0 mph 8.0 mph 78% 0.00 in
22:40 59.7 °F 52.8 °F 29.84 in SE 3.0 mph 8.0 mph 78% 0.00 in
22:45 59.5 °F 52.6 °F 29.84 in SE 3.0 mph 7.0 mph 78% 0.00 in
22:50 59.4 °F 52.5 °F 29.84 in SE 1.0 mph 6.0 mph 78% 0.00 in
22:55 59.3 °F 52.8 °F 29.84 in SE 2.0 mph 6.0 mph 79% 0.00 in
23:00 59.2 °F 52.7 °F 29.84 in SE 1.0 mph 5.0 mph 79% 0.00 in
23:05 59.1 °F 52.6 °F 29.84 in SE 2.0 mph 3.0 mph 79% 0.00 in
23:10 59.1 °F 52.6 °F 29.83 in SE 1.0 mph 4.0 mph 79% 0.00 in
23:20 59.1 °F 52.6 °F 29.83 in SE 2.0 mph 4.0 mph 79% 0.00 in
23:25 59.1 °F 52.6 °F 29.83 in SE 1.0 mph 4.0 mph 79% 0.00 in
23:30 59.0 °F 52.8 °F 29.83 in SE 1.0 mph 3.0 mph 80% 0.00 in
23:35 59.0 °F 52.8 °F 29.83 in Calm   3.0 mph 80% 0.00 in
23:40 58.8 °F 52.6 °F 29.83 in Calm     80% 0.00 in
23:45 58.7 °F 52.5 °F 29.83 in Calm     80% 0.00 in
23:50 58.7 °F 52.5 °F 29.83 in Calm     80% 0.00 in
23:55 58.5 °F 52.7 °F 29.83 in Calm     81% 0.00 in
Buffalo, New York, USA
Compliments of Weather Underground - 2.25 mb